Lexington Weather

Lexington, Massachusetts, USA

70°F
8/17/2022 7:04pm 
  • Lexington Conditions: Overcast
  • Temperature: 69.6°F / 20.9°CColder 0.7°F than last hour.
  • Dew Point: 57.4°FDecreased 2.0°Fsince last hour.
  • Relative Humidity: 65%Decreased 3.0% since last hour.
  • Wind: Calm, 10-min avg: Calm, gust: None
  • Barometer: 29.85 in Steady
  • Visibility: 10 miles
  • Rain Today: 0.00 in
  •   

Regional Weather Roundup
for Boston, MA

        
000
ASUS41 KBOX 152010
RWRBOX

REGIONAL WEATHER ROUNDUP
NATIONAL WEATHER SERVICE BOSTON/NORTON MA
400 PM EDT MON AUG 15 2022

NOTE:  "FAIR" INDICATES FEW OR NO CLOUDS BELOW 12,000 FEET WITH NO 
SIGNIFICANT WEATHER AND/OR OBSTRUCTIONS TO VISIBILITY.

MAZALL-152100-
EASTERN MASSACHUSETTS
  
CITY           SKY/WX    TMP DP  RH WIND       PRES   REMARKS
BOSTON         PTSUNNY   74  61  63 E13       30.01F                  
BEVERLY        MOSUNNY   77  53  43 SE10      30.01S                  
LAWRENCE       MOSUNNY   84  48  28 E10G16    30.02S                  
BEDFORD        MOSUNNY   84  47  27 E12G22    29.99S                  
BLUE HILL      NOT AVBL                                               
NORWOOD        MOSUNNY   84  50  30 NE10G16   29.98F                  
MARSHFIELD     MOSUNNY   73  61  64 MISG      30.01S                  
PLYMOUTH       MOSUNNY   80  54  40 E8        30.00F                  
TAUNTON          N/A    N/A N/A N/A MISG      29.98F                  
NEW BEDFORD    MOSUNNY   79  55  43 E9        29.99S                  
$$

MAZALL-152100-
CAPE COD AND THE ISLANDS
  
CITY           SKY/WX    TMP DP  RH WIND       PRES   REMARKS
FALMOUTH       SUNNY     77  52  41 SE13      30.01S                  
HYANNIS        PTSUNNY   76  55  48 E9        29.99F                  
CHATHAM        PTSUNNY   74  58  57 E8        30.02F                  
NANTUCKET      CLOUDY    73  62  68 E10       30.00F                  
MARTHAS VNYRD  PTSUNNY   76  61  59 S8        30.00F                  
$$
 
MAZALL-152100-
CENTRAL AND WESTERN MASSACHUSETTS
  
CITY           SKY/WX    TMP DP  RH WIND       PRES   REMARKS
WORCESTER      MOSUNNY   81  49  32 VRB5      30.01F                  
FITCHBURG      MOSUNNY   83  47  28 SE10      30.00S                  
ORANGE         SUNNY     84  48  28 E6        29.99F                  
SPRINGFIELD    PTSUNNY   83  46  27 NE5       29.94F                  
WESTFIELD      MOSUNNY   83  48  29 VRB3      29.96F                  
NORTH ADAMS    MOSUNNY   79  58  48 S3        29.98F                  
PITTSFIELD     MOSUNNY   79  51  37 VRB3      29.99F                  
$$
 
RIZALL-152100-
RHODE ISLAND
  
CITY           SKY/WX    TMP DP  RH WIND       PRES   REMARKS
PROVIDENCE     PTSUNNY   80  58  46 SE13      29.99S                  
NEWPORT        PTSUNNY   72  60  66 S10       30.01R                  
BLOCK ISLAND   MOSUNNY   75  55  49 SE12      30.00F                  
SMITHFIELD     MOSUNNY   84  46  26 NE7       29.99F                  
WESTERLY       MOSUNNY   76  59  55 SE12      30.00S                  
$$
 
CTZALL-152100-
CONNECTICUT
  
CITY           SKY/WX    TMP DP  RH WIND       PRES   REMARKS
BRADLEY INTL   PTSUNNY   86  49  27 VRB3      29.96F                  
HARTFORD       PTSUNNY   85  54  34 SE7       29.95F                  
BRIDGEPORT     MOSUNNY   79  59  50 SE9       29.97F                  
DANBURY        MOSUNNY   82  51  34 SE8       29.98F                  
GROTON         MOSUNNY   78  59  51 S10       29.99S                  
NEW HAVEN      MOSUNNY   83  60  45 S13       29.98F                  
CHESTER        FAIR      79  52  38 S8        30.00S                  
MERIDEN        MOSUNNY   82  53  36 S9        29.97F                  
WILLIMANTIC    PTSUNNY   79  56  45 S12       29.98F                  
OXFORD         MOSUNNY   82  55  39 S9        29.99F                  
$$

MEZ002-015-021-024-NHZ003-005-008-011-012-014-VTZ005-008-152100-
NORTHERN NEW ENGLAND
  
CITY           SKY/WX    TMP DP  RH WIND       PRES   REMARKS
PORTLAND ME    MOSUNNY   78  53  41 S8        30.03R                  
BANGOR ME      PTSUNNY   82  56  40 SE9       30.01S                  
CONCORD NH     CLOUDY    80  51  36 CALM      29.99F                  
MANCHESTER NH  PTSUNNY   84  50  30 VRB5      29.98F                  
NASHUA NH      MOSUNNY   83  51  33 VRB7      29.99F                  
PORTSMOUTH NH  PTSUNNY   77  55  45 SE13      30.01S                  
JAFFREY NH     MOSUNNY   82  47  29 E6        30.02F                  
KEENE NH       MOSUNNY   82  48  30 NW5         N/A                   
BURLINGTON VT  MOSUNNY   83  46  27 CALM      30.00F                  
MT. WASHINGTON PTSUNNY   54  45  71 SE1         N/A                   
$$

NYZ052-076-152100-
EASTERN NEW YORK
  
CITY           SKY/WX    TMP DP  RH WIND       PRES   REMARKS
ALBANY         MOSUNNY   85  52  32 VRB3      29.96F                  
NEW YORK CITY  MOSUNNY   81  48  31 S10G17    29.96F                  
$$
 
ANZALL-152100-
MARINE OBSERVATIONS
  
STATION/POSITION TIME  TEMP    WIND        PRES    VSBY  WAVE
                       AIR SEA DIR/SP/G                  HT/PER
                 (UTC) (F)     (DEG/KT/KT) (MB)    (MI)  (FT/S)
BOSTON BUOY      NOT AVBL
BUZZARDS BAY     NOT AVBL
NANTUCKET SOUND  NOT AVBL
MASS BAY-STELLWA NOT AVBL
ISLE OF SHOALS   NOT AVBL
S OF BLOCK IS    NOT AVBL
$$

......................KEY.........................
  SKY/WX - SKY CONDITION/PRESENT WEATHER
  TMP    - TEMPERATURE IN FAHRENHEIT
  DWPT   - DEWPOINT IN FAHRENHEIT
  RH     - RELATIVE HUMIDITY IN PERCENT
  WIND   - DIRECTION AND SPEED IN MPH
  PRES   - MEAN SEA LEVEL PRESSURE IN INCHES OF HG
  WCI    - WIND CHILL INDEX
  VSB    - VISIBILITY IN MILES
  HX     - HEAT INDEX
  TC     - TEMPERATURE IN CELSIUS
  VRB    - VARIABLE WIND DIRECTION
  N/A    - NOT AVAILABLE
  
      

Other recent Regional Weather Roundups

Wed Aug 17, 6:10pm

Wed Aug 17, 5:10pm

Wed Aug 17, 4:10pm

Wed Aug 17, 3:10pm

Wed Aug 17, 2:10pm

Wed Aug 17, 1:10pm

Wed Aug 17, 12:10pm

Wed Aug 17, 11:10am

Wed Aug 17, 10:10am

Wed Aug 17, 9:10am

Wed Aug 17, 8:10am

Wed Aug 17, 7:10am

Wed Aug 17, 6:10am

Wed Aug 17, 5:10am

Wed Aug 17, 4:10am

Wed Aug 17, 3:10am

Wed Aug 17, 2:10am

Wed Aug 17, 1:10am

Wed Aug 17, 12:10am

Tue Aug 16, 11:10pm

Tue Aug 16, 10:10pm

Tue Aug 16, 9:10pm

Tue Aug 16, 8:10pm

Tue Aug 16, 7:10pm

Tue Aug 16, 6:10pm

Tue Aug 16, 5:10pm

Tue Aug 16, 4:10pm

Tue Aug 16, 3:10pm

Tue Aug 16, 2:10pm

Tue Aug 16, 1:10pm

Tue Aug 16, 12:10pm

Tue Aug 16, 11:10am

Tue Aug 16, 10:10am

Tue Aug 16, 9:10am

Tue Aug 16, 8:10am

Tue Aug 16, 7:10am

Tue Aug 16, 6:10am

Tue Aug 16, 5:10am

Tue Aug 16, 4:10am

Tue Aug 16, 3:10am

Tue Aug 16, 2:10am

Tue Aug 16, 1:10am

Tue Aug 16, 12:10am

Mon Aug 15, 11:10pm

Mon Aug 15, 10:10pm

Mon Aug 15, 9:10pm

Mon Aug 15, 8:10pm

Mon Aug 15, 7:10pm

Mon Aug 15, 6:10pm

Mon Aug 15, 5:10pm

Mon Aug 15, 3:10pm

Mon Aug 15, 2:10pm

Mon Aug 15, 1:10pm

Mon Aug 15, 12:10pm

Mon Aug 15, 11:10am

Mon Aug 15, 10:10am

Mon Aug 15, 9:10am

Mon Aug 15, 8:10am

Mon Aug 15, 7:10am

Mon Aug 15, 6:10am

Mon Aug 15, 5:10am

Mon Aug 15, 4:10am

Mon Aug 15, 3:10am

Mon Aug 15, 2:10am

Mon Aug 15, 1:10am

Mon Aug 15, 12:10am

Sun Aug 14, 11:10pm

Sun Aug 14, 10:10pm

Sun Aug 14, 9:10pm

Sun Aug 14, 8:10pm

Sun Aug 14, 7:10pm

Sun Aug 14, 6:10pm

Sun Aug 14, 5:10pm

Sun Aug 14, 4:10pm

Sun Aug 14, 3:10pm

Sun Aug 14, 2:10pm

Sun Aug 14, 1:10pm

Sun Aug 14, 12:10pm

Sun Aug 14, 11:10am

Sun Aug 14, 10:10am

Sun Aug 14, 9:10am

Sun Aug 14, 8:10am

Sun Aug 14, 7:10am

Sun Aug 14, 6:10am

Sun Aug 14, 5:10am

Sun Aug 14, 4:10am

Sun Aug 14, 3:10am

Sun Aug 14, 2:10am

Sun Aug 14, 1:10am

Sun Aug 14, 12:10am

Sat Aug 13, 11:10pm

Sat Aug 13, 10:10pm

Sat Aug 13, 9:10pm

Sat Aug 13, 8:10pm

Sat Aug 13, 7:10pm

Sat Aug 13, 6:10pm

Sat Aug 13, 5:10pm

Sat Aug 13, 4:10pm

Sat Aug 13, 3:10pm

Sat Aug 13, 2:10pm

Sat Aug 13, 1:10pm

Sat Aug 13, 12:10pm

Sat Aug 13, 11:10am

Sat Aug 13, 10:10am

Sat Aug 13, 9:10am

Sat Aug 13, 8:10am

Sat Aug 13, 7:10am

Sat Aug 13, 6:10am

Sat Aug 13, 5:10am

Sat Aug 13, 4:10am

Sat Aug 13, 3:10am

Sat Aug 13, 2:10am

Sat Aug 13, 1:10am

Sat Aug 13, 12:10am

Fri Aug 12, 11:10pm

Fri Aug 12, 10:10pm

Fri Aug 12, 9:10pm

Fri Aug 12, 8:10pm

Fri Aug 12, 7:10pm

Fri Aug 12, 6:10pm

Fri Aug 12, 5:10pm

Fri Aug 12, 4:10pm

Fri Aug 12, 3:10pm

Fri Aug 12, 2:10pm

Fri Aug 12, 1:10pm

Fri Aug 12, 12:10pm

Fri Aug 12, 11:10am

Fri Aug 12, 10:10am

Fri Aug 12, 9:10am

Fri Aug 12, 8:10am

Fri Aug 12, 7:10am

Fri Aug 12, 6:10am

Fri Aug 12, 5:10am

Fri Aug 12, 4:10am

Fri Aug 12, 3:10am

Fri Aug 12, 2:10am

Fri Aug 12, 1:10am

Fri Aug 12, 12:10am

Thu Aug 11, 11:10pm

Thu Aug 11, 10:10pm

Thu Aug 11, 9:10pm

Thu Aug 11, 8:10pm

Thu Aug 11, 7:10pm

Thu Aug 11, 6:10pm

Thu Aug 11, 5:10pm

Thu Aug 11, 4:10pm

Thu Aug 11, 3:10pm

Thu Aug 11, 2:10pm

Thu Aug 11, 1:10pm

Thu Aug 11, 12:10pm

Thu Aug 11, 11:10am

Thu Aug 11, 10:10am

Thu Aug 11, 9:10am

Thu Aug 11, 8:10am

Thu Aug 11, 7:10am

Thu Aug 11, 6:10am

Thu Aug 11, 5:10am

Thu Aug 11, 4:10am

Thu Aug 11, 3:10am

Thu Aug 11, 2:10am

Thu Aug 11, 1:10am

Thu Aug 11, 12:10am

Wed Aug 10, 11:10pm

Wed Aug 10, 10:10pm

Wed Aug 10, 9:10pm

Wed Aug 10, 8:10pm

Wed Aug 10, 7:10pm

Meta data:

ID: ddc7b916-87c8-45a0-b210-ea15b3c02895
Link: https://api.weather.gov/products/ddc7b916-87c8-45a0-b210-ea15b3c02895